• In Austria
  • List of Countries
  • For 7 days
  • Water Temperature
  • Satellite Maps
  • Weather Map
  • News
  • Weather Widgets
  • user-avatar
    Login

    Hourly Weather La Massana

    Today, 24 February, Saturday

    Time Temperature Precipitation Wind Pressure Humidity
    00:00 -9°C° 0 mm 1 mps 599 mmHg 80%
    01:00 -9°C° 0 mm 1 mps 599 mmHg 79%
    02:00 -10°C° 0 mm 1 mps 599 mmHg 78%
    03:00 -10°C° 0 mm 1 mps 599 mmHg 77%
    04:00 -10°C° 0 mm 1 mps 599 mmHg 76%
    05:00 -10°C° 0 mm 1 mps 599 mmHg 75%
    06:00 -10°C° 0 mm 1 mps 599 mmHg 74%
    07:00 -8°C° 0 mm 0 mps 600 mmHg 68%
    08:00 -5°C° 0 mm 0 mps 601 mmHg 61%
    09:00 -3°C° 0 mm 0 mps 602 mmHg 55%
    10:00 -2°C° 0 mm 0 mps 602 mmHg 53%
    11:00 0°C° 0 mm 1 mps 603 mmHg 51%
    12:00 +1°C° 0 mm 1 mps 603 mmHg 49%
    13:00 +1°C° 0 mm 1 mps 603 mmHg 51%
    14:00 +1°C° 0 mm 1 mps 603 mmHg 53%
    15:00 +1°C° 0 mm 1 mps 603 mmHg 55%
    16:00 -1°C° 0.1 mm 1 mps 602 mmHg 63%
    17:00 -3°C° 0.1 mm 1 mps 602 mmHg 71%
    18:00 -6°C° 0.1 mm 1 mps 601 mmHg 78%
    19:00 -6°C° 0 mm 1 mps 601 mmHg 79%
    20:00 -6°C° 0 mm 1 mps 601 mmHg 80%
    21:00 -6°C° 0 mm 1 mps 602 mmHg 81%
    22:00 -6°C° 0 mm 1 mps 602 mmHg 79%
    23:00 -6°C° 0 mm 1 mps 602 mmHg 77%

    Tomorrow, 25 February, Sunday

    Time Temperature Precipitation Wind Pressure Humidity
    00:00 -7°C° 0 mm 1 mps 602 mmHg 75%
    01:00 -7°C° 0 mm 1 mps 602 mmHg 74%
    02:00 -7°C° 0 mm 1 mps 602 mmHg 72%
    03:00 -8°C° 0 mm 2 mps 601 mmHg 70%
    04:00 -8°C° 0 mm 2 mps 601 mmHg 70%
    05:00 -8°C° 0 mm 2 mps 602 mmHg 70%
    06:00 -8°C° 0 mm 2 mps 602 mmHg 69%
    07:00 -4°C° 0 mm 1 mps 603 mmHg 65%
    08:00 -2°C° 0 mm 1 mps 603 mmHg 62%
    09:00 0°C° 0 mm 1 mps 604 mmHg 58%
    10:00 -1°C° 0 mm 2 mps 605 mmHg 58%
    11:00 +1°C° 0 mm 2 mps 605 mmHg 57%
    12:00 +2°C° 0 mm 2 mps 605 mmHg 57%
    13:00 +2°C° 0 mm 2 mps 605 mmHg 58%
    14:00 +2°C° 0 mm 2 mps 605 mmHg 59%
    15:00 +1°C° 0 mm 3 mps 604 mmHg 60%
    16:00 -1°C° 0 mm 2 mps 604 mmHg 68%
    17:00 -3°C° 0 mm 2 mps 603 mmHg 76%
    18:00 -5°C° 0 mm 2 mps 602 mmHg 84%
    19:00 -6°C° 0 mm 2 mps 602 mmHg 84%
    20:00 -6°C° 0 mm 2 mps 602 mmHg 84%
    21:00 -7°C° 0 mm 2 mps 602 mmHg 84%
    22:00 -7°C° 0 mm 2 mps 602 mmHg 82%
    23:00 -7°C° 0 mm 2 mps 602 mmHg 80%

    Day after tomorrow, 26 February, Monday

    Time Temperature Precipitation Wind Pressure Humidity
    00:00 -8°C° 0 mm 2 mps 602 mmHg 78%
    01:00 -8°C° 0 mm 2 mps 602 mmHg 78%
    02:00 -8°C° 0 mm 2 mps 601 mmHg 78%
    03:00 -8°C° 0 mm 2 mps 601 mmHg 79%
    04:00 -9°C° 0 mm 2 mps 601 mmHg 79%
    05:00 -9°C° 0 mm 2 mps 601 mmHg 79%
    06:00 -9°C° 0 mm 2 mps 601 mmHg 79%
    07:00 -8°C° 0 mm 2 mps 602 mmHg 73%
    08:00 -7°C° 0 mm 2 mps 602 mmHg 67%
    09:00 -5°C° 0 mm 2 mps 603 mmHg 61%
    10:00 -4°C° 0 mm 2 mps 603 mmHg 57%
    11:00 -3°C° 0 mm 2 mps 603 mmHg 54%
    12:00 -3°C° 0 mm 2 mps 603 mmHg 50%
    13:00 -3°C° 0 mm 2 mps 603 mmHg 52%
    14:00 -3°C° 0 mm 2 mps 602 mmHg 55%
    15:00 -4°C° 0 mm 2 mps 602 mmHg 58%
    16:00 -6°C° 0.1 mm 2 mps 601 mmHg 63%
    17:00 -7°C° 0.1 mm 2 mps 600 mmHg 68%
    18:00 -9°C° 0.1 mm 2 mps 600 mmHg 73%
    19:00 -9°C° 0.2 mm 2 mps 600 mmHg 72%
    20:00 -9°C° 0.2 mm 1 mps 600 mmHg 71%
    21:00 -9°C° 0.2 mm 1 mps 600 mmHg 70%
    22:00 -9°C° 0.2 mm 1 mps 600 mmHg 71%
    23:00 -10°C° 0.2 mm 1 mps 600 mmHg 72%

    27 February, Tuesday

    Time Temperature Precipitation Wind Pressure Humidity
    00:00 -10°C° 0.2 mm 1 mps 600 mmHg 73%
    01:00 -10°C° 0.1 mm 1 mps 599 mmHg 73%
    02:00 -10°C° 0.1 mm 1 mps 599 mmHg 74%
    03:00 -10°C° 0.1 mm 1 mps 599 mmHg 74%
    04:00 -11°C° 0.1 mm 1 mps 599 mmHg 74%
    05:00 -11°C° 0.1 mm 1 mps 598 mmHg 74%
    06:00 -11°C° 0.1 mm 1 mps 598 mmHg 74%
    07:00 -10°C° 0 mm 1 mps 599 mmHg 69%
    08:00 -9°C° 0 mm 1 mps 599 mmHg 65%
    09:00 -8°C° 0 mm 1 mps 600 mmHg 60%
    10:00 -8°C° 0.1 mm 2 mps 600 mmHg 59%
    11:00 -8°C° 0.1 mm 2 mps 601 mmHg 57%
    12:00 -7°C° 0.1 mm 2 mps 601 mmHg 56%
    13:00 -7°C° 0.2 mm 2 mps 600 mmHg 59%
    14:00 -7°C° 0.2 mm 2 mps 600 mmHg 62%
    15:00 -7°C° 0.2 mm 2 mps 600 mmHg 65%
    16:00 -7°C° 0.2 mm 1 mps 600 mmHg 68%
    17:00 -8°C° 0.2 mm 1 mps 599 mmHg 71%
    18:00 -9°C° 0.2 mm 1 mps 599 mmHg 74%
    19:00 -9°C° 0.1 mm 1 mps 599 mmHg 74%
    20:00 -9°C° 0.1 mm 1 mps 600 mmHg 74%
    21:00 -10°C° 0.1 mm 1 mps 600 mmHg 74%
    22:00 -10°C° 0 mm 1 mps 600 mmHg 76%
    23:00 -10°C° 0 mm 1 mps 599 mmHg 77%

    28 February, Wednesday

    Time Temperature Precipitation Wind Pressure Humidity
    00:00 -11°C° 0 mm 1 mps 599 mmHg 79%
    01:00 -11°C° 0 mm 1 mps 599 mmHg 78%
    02:00 -11°C° 0 mm 1 mps 599 mmHg 78%
    03:00 -11°C° 0 mm 1 mps 598 mmHg 78%
    04:00 -11°C° 0.1 mm 1 mps 598 mmHg 77%
    05:00 -10°C° 0.1 mm 1 mps 598 mmHg 75%
    06:00 -10°C° 0.1 mm 1 mps 598 mmHg 73%
    07:00 -10°C° 0.4 mm 2 mps 599 mmHg 75%
    08:00 -9°C° 0.4 mm 2 mps 599 mmHg 76%
    09:00 -8°C° 0.4 mm 3 mps 599 mmHg 78%
    10:00 -8°C° 1 mm 3 mps 599 mmHg 79%
    11:00 -8°C° 1 mm 4 mps 599 mmHg 80%
    12:00 -8°C° 1 mm 4 mps 599 mmHg 81%
    13:00 -7°C° 1.2 mm 4 mps 598 mmHg 81%
    14:00 -7°C° 1.2 mm 4 mps 597 mmHg 82%
    15:00 -5°C° 1.2 mm 4 mps 597 mmHg 83%
    16:00 -5°C° 1 mm 4 mps 596 mmHg 86%
    17:00 -5°C° 1 mm 3 mps 596 mmHg 88%
    18:00 -5°C° 1 mm 3 mps 595 mmHg 91%
    19:00 -5°C° 1.1 mm 3 mps 595 mmHg 92%
    20:00 -4°C° 1.1 mm 3 mps 595 mmHg 93%
    21:00 -4°C° 1.1 mm 3 mps 595 mmHg 93%
    22:00 -4°C° 1.1 mm 3 mps 594 mmHg 93%
    23:00 -2°C° 1.1 mm 3 mps 594 mmHg 93%

    1 March, Thursday

    Time Temperature Precipitation Wind Pressure Humidity
    00:00 -2°C° 1.1 mm 3 mps 594 mmHg 93%
    01:00 -2°C° 1.6 mm 3 mps 593 mmHg 93%
    02:00 -2°C° 1.6 mm 3 mps 593 mmHg 93%
    03:00 -2°C° 1.6 mm 3 mps 593 mmHg 92%
    04:00 -2°C° 0.1 mm 3 mps 592 mmHg 93%
    05:00 -2°C° 0.1 mm 3 mps 592 mmHg 93%
    06:00 -2°C° 0.1 mm 3 mps 592 mmHg 93%
    07:00 -1°C° 0.1 mm 3 mps 592 mmHg 92%
    08:00 0°C° 0.1 mm 3 mps 593 mmHg 91%
    09:00 +1°C° 0.1 mm 3 mps 593 mmHg 89%
    10:00 0°C° 0.3 mm 4 mps 592 mmHg 86%
    11:00 +1°C° 0.3 mm 4 mps 592 mmHg 83%
    12:00 +2°C° 0.3 mm 5 mps 592 mmHg 80%
    13:00 +3°C° 2.3 mm 4 mps 592 mmHg 82%
    14:00 +1°C° 2.3 mm 4 mps 591 mmHg 83%
    15:00 +1°C° 2.3 mm 4 mps 590 mmHg 84%
    16:00 0°C° 0.8 mm 4 mps 590 mmHg 86%
    17:00 0°C° 0.8 mm 4 mps 589 mmHg 87%
    18:00 -1°C° 0.8 mm 4 mps 589 mmHg 88%
    19:00 0°C° 1 mm 3 mps 589 mmHg 89%
    20:00 -1°C° 1 mm 3 mps 588 mmHg 90%
    21:00 -1°C° 1 mm 3 mps 588 mmHg 91%
    22:00 -1°C° 1.1 mm 3 mps 588 mmHg 92%
    23:00 -1°C° 1.1 mm 3 mps 587 mmHg 92%
    Show more